Regional Weather Roundup
Issued by NWS

Home | Current Version | Previous Version | Graphics & Text | Print | Product List | Glossary On
Versions: 1 2 3 4 5 6 7 8 9 10 11 12 13 14 15 16 17 18 19 20 21 22 23 24 25 26 27 28 29 30 31 32 33 34 35 36 37 38 39 40 41 42 43 44 45 46 47 48 49 50
000
ASUS45 KTFX 280004
RWRMT
MONTANA HOURLY WEATHER ROUNDUP
NATIONAL WEATHER SERVICE GREAT FALLS MT
504 PM MST SAT DEC 27 2014

NOTE: "FAIR" INDICATES FEW OR NO CLOUDS BELOW 12000 FEET WITH NO
SIGNIFICANT WEATHER AND/OR OBSTRUCTIONS TO VISIBILITY.

* THESE STATIONS ARE NOT UNDER NWS QUALITY CONTROL. THEY DO NOT
   REPORT WEATHER SUCH AS PRECIPITATION OR FOG.

MTZ001>007-043-280100-
WEST OF THE DIVIDE
CITY           SKY/WX    TMP DP  RH WIND       PRES   REMARKS
KALISPELL      LGT SNOW  28  27  96 SE12      29.95F VSB 1    WCI  18
MISSOULA       MOCLDY    27  21  78 SW3       30.01F
BUTTE          CLOUDY    25  10  53 CALM      29.97F
MULLAN PASS    SNOW      21  18  88 VRB5      29.82F VSB M1/4 WCI  14
* ESSEX        N/A       25  23  92 N/A        N/A
* LINCOLN      N/A       24  20  85 SW5G11     N/A   WCI  18
* LOOKOUT PASS N/A       25  23  92 SE4        N/A
* POLSON       N/A       28  27  96 N/A        N/A
* RONAN APT    MOCLDY    30  27  89 N/A        N/A
* SEELEY LAKE  N/A       26  23  88 N/A        N/A
* THOMP F APT  CLOUDY    11   6  80 SE4G9      N/A
$$

MTZ008-052>055-280100-
SOUTHWEST MONTANA
CITY           SKY/WX    TMP DP  RH WIND       PRES   REMARKS
BOZEMAN        CLOUDY    21  14  74 E3        30.02F
DILLON         PTCLDY    21  10  62 S16       30.01F WCI   7
* W YELLOWSTON PTCLDY    12   7  80 SW3G12     N/A
* THREE FORKS  PTCLDY    27  21  78 S15G30     N/A   WCI  15
* BOULDER HILL N/A       22   8  55 S14G19     N/A   WCI   9
* MONIDA PASS  N/A        9   7  91 SE17       N/A   WCI  -9
* RAYNOLDS PAS N/A       11  -4  50 S18        N/A   WCI  -7
* WHITEHALL    N/A       26   9  48 SW16G30    N/A   WCI  13
* WISE RIVER   N/A       24  12  60 NW7G14     N/A   WCI  16
$$

MTZ009>010-012-014-046-048-049-054-280100-
EAST SLOPES AND CENTRAL MONTANA
CITY           SKY/WX    TMP DP  RH WIND       PRES   REMARKS
CUT BANK       PTCLDY    27  16  63 W13       29.84F WCI  16
GREAT FALLS    CLOUDY    28  19  69 SW18      29.89F WCI  15
HELENA         MOCLDY    25  18  75 SW3       29.98F
* DEARBORN     N/A       31  17  56 SW7G17     N/A   WCI  24
* EAST GLACIER N/A       25  16  69 W21G27     N/A   WCI  10
* MONARCH      N/A       22  10  60 SW10G15    N/A   WCI  11
* PENDROY      N/A       28  15  58 W12        N/A   WCI  18
* SWEET GRASS  N/A       23  14  68 SW8        N/A   WCI  14
$$

MTZ011-013-016-021-035-040-045-047-050-051-280100-
NORTH CENTRAL MONTANA
CITY           SKY/WX    TMP DP  RH WIND       PRES   REMARKS
HAVRE          CLEAR     27  21  78 SW15      29.91S WCI  15
LEWISTOWN      CLOUDY    25  16  69 W10       29.91F WCI  15
* N BAR RANCH  CLOUDY    25  14  63 W8        29.91F WCI  16
* CHESTER      N/A       25  18  75 S4         N/A
* DENTON       N/A       24  14  66 SW10       N/A   WCI  14
* JUDITH GAP   N/A       22  14  71 SW18G24    N/A   WCI   8
* LOMA         N/A       30  21  69 SW4        N/A
$$

MTZ017>020-022>027-061-062-280100-
NORTHEAST MONTANA
CITY           SKY/WX    TMP DP  RH WIND       PRES   REMARKS
GLASGOW        CLOUDY    30  18  61 SW3       29.95S
GLENDIVE       PTCLDY    25  16  69 SW7       29.99S WCI  17
JORDAN         PTCLDY    25  19  78 W5        29.95F WCI  19
SIDNEY         MOCLDY    27  18  69 CALM      30.01S
WOLF POINT     CLOUDY    23  18  81 E3        29.97F
* BEAVER HILL  N/A       23  17  78 S9         N/A   WCI  13
* CIRCLE       N/A       26  19  75 SW2        N/A
* LINDSAY DVD  N/A       21  15  78 SW6        N/A   WCI  13
* NAVAJO       N/A       21  19  92 N2         N/A
* SACO         N/A       27  19  72 S8         N/A   WCI  19
$$

MTZ028>042-056>058-280100-
SOUTHCENTRAL AND SOUTHEAST MONTANA
CITY           SKY/WX    TMP DP  RH WIND       PRES   REMARKS
BAKER          CLOUDY    21  16  81 SW8       29.99F WCI  11
BILLINGS       MOCLDY    25  14  63 SW17      29.98F WCI  12
LIVINGSTON     CLOUDY    27  10  49 SW36G47   29.95S WCI  10
MILES CITY     CLOUDY    27  19  72 S6        30.00F WCI  20
* LAUREL APT   PTCLDY    21  12  68 SW7        N/A   WCI  12
* ROUNDUP APT  PTCLDY    28  16  61 W10G15     N/A   WCI  19
* ALZADA       N/A       24  16  71 SW4        N/A
* REED POINT   N/A       29  13  51 W3G8       N/A
* ROSCOE HILL  N/A       26  -1  31 S11G18     N/A   WCI  16
$$

REGIONAL REPORTS...DAKOTAS
CITY           SKY/WX    TMP DP  RH WIND       PRES   REMARKS
WILLISTON      CLOUDY    25  18  75 NE5       30.00R WCI  19
DICKINSON      CLOUDY    19  12  74 W9        29.96S WCI   8
BEACH          CLOUDY    23  18  81 SW12      29.98F WCI  11
CROSBY         CLOUDY    14  14 100 NW8       30.02S WCI   3
WATFORD CITY   MOCLDY    23  18  81 SW7       29.97S WCI  15
BISMARCK       PTCLDY    21  16  81 W7        30.02R WCI  12
GRAND FORKS    LGT SNOW  19  16  88 CALM      30.03R
FARGO          CLOUDY    25  18  75 W5        30.03S WCI  19
BUFFALO SD     PTCLDY    23  16  74 W13       29.94S WCI  11
RAPID CITY     MOCLDY    19  14  81 W6        30.04R WCI  11
$$

REGIONAL REPORTS...WYOMING/IDAHO/WASHINGTON
CITY           SKY/WX    TMP DP  RH WIND       PRES   REMARKS
GILLETTE       MOCLDY    18   9  68 SW8       30.01S WCI   8
SHERIDAN       CLOUDY    18   7  62 S6        30.00S WCI  10
CODY           FAIR      25   7  46 CALM      29.98S
YELLOWSTONE LA PTCLDY    10   3  73 CALM      30.05R
SALMON         PTCLDY    21  12  68 CALM      30.15F
MULLAN PASS    SNOW      21  18  88 VRB5      29.82S VSB M1/4 WCI  14
SAND POINT     LGT SNOW  32  32 100 CALM      29.94F VSB 3/4
SPOKANE        CLOUDY    34  32  92 S17       29.90F WCI  23

$$




USA.gov is the U.S. government's official web portal to all federal, state and local government web resources and services.